| time (UTC) | temp F | wind direction | speed MPH | gust MPH | rain 1hr in | rain 24hr in | rain mn in | humidity % | barometer mb |
| 20260904212003 | 75 | 270 | 0.0 | 0.0 | 0.00 | 0.00 | 0.00 | 83 | 1008.2 |
| 20260904211506 | 75 | 319 | 0.0 | 0.0 | 0.00 | 0.00 | 0.00 | 83 | 1008.2 |
| 20260904211004 | 75 | 302 | 0.0 | 0.0 | 0.00 | 0.00 | 0.00 | 83 | 1008.2 |
| 20260904210507 | 75 | 320 | 0.0 | 0.0 | 0.00 | 0.00 | 0.00 | 83 | 1008.2 |
| 20260904210006 | 75 | 320 | 0.0 | 0.0 | 0.00 | 0.00 | 0.00 | 83 | 1008.3 |
| 20260904205506 | 76 | 320 | 0.0 | 0.0 | 0.00 | 0.00 | 0.00 | 83 | 1008.3 |
| 20260904205003 | 76 | 320 | 0.0 | 0.0 | 0.00 | 0.00 | 0.00 | 83 | 1008.2 |
| 20260904204503 | 76 | 320 | 0.0 | 0.0 | 0.00 | 0.00 | 0.00 | 81 | 1008.3 |
| 20260904204005 | 76 | 281 | 0.0 | 0.0 | 0.00 | 0.00 | 0.00 | 81 | 1008.2 |
| 20260904203507 | 76 | 304 | 0.0 | 0.0 | 0.00 | 0.00 | 0.00 | 81 | 1008.3 |
| 20260904203006 | 76 | 300 | 0.0 | 0.0 | 0.00 | 0.00 | 0.00 | 81 | 1008.3 |
| 20260904202501 | 76 | 308 | 0.0 | 0.0 | 0.00 | 0.00 | 0.00 | 81 | 1008.1 |
| 20260904202002 | 76 | 297 | 0.0 | 0.0 | 0.00 | 0.00 | 0.00 | 81 | 1008.3 |
| 20260904201506 | 76 | 255 | 0.0 | 0.0 | 0.00 | 0.00 | 0.00 | 81 | 1008.3 |
| 20260904201006 | 76 | 255 | 0.0 | 0.0 | 0.00 | 0.00 | 0.00 | 81 | 1008.2 |
| 20260904200506 | 76 | 263 | 0.0 | 0.0 | 0.00 | 0.00 | 0.00 | 81 | 1008.2 |
| 20260904200017 | 76 | 263 | 0.0 | 0.0 | 0.00 | 0.00 | 0.00 | 80 | 1008.1 |
| 20260904195504 | 76 | 263 | 0.0 | 0.0 | 0.00 | 0.00 | 0.00 | 79 | 1008.3 |
| 20260904195004 | 76 | 267 | 0.0 | 0.0 | 0.00 | 0.00 | 0.00 | 79 | 1008.3 |
| 20260904194523 | 77 | 289 | 0.0 | 0.0 | 0.00 | 0.00 | 0.00 | 78 | 1008.3 |
| 20260904194003 | 77 | 288 | 0.0 | 0.0 | 0.00 | 0.00 | 0.00 | 79 | 1008.5 |
| 20260904193503 | 77 | 296 | 0.0 | 0.0 | 0.00 | 0.00 | 0.00 | 79 | 1008.5 |
| 20260904193006 | 78 | 293 | 0.0 | 0.0 | 0.00 | 0.00 | 0.00 | 81 | 1008.6 |
| 20260904192506 | 78 | 302 | 0.0 | 0.0 | 0.00 | 0.00 | 0.00 | 80 | 1008.6 |
| 20260904192005 | 78 | 267 | 0.0 | 0.0 | 0.00 | 0.00 | 0.00 | 78 | 1008.5 |
| 20260904191511 | 79 | 281 | 0.0 | 0.0 | 0.00 | 0.00 | 0.00 | 76 | 1008.4 |
| 20260904191008 | 79 | 281 | 0.0 | 0.0 | 0.00 | 0.00 | 0.00 | 77 | 1008.5 |
| 20260904190506 | 79 | 281 | 0.0 | 0.0 | 0.00 | 0.00 | 0.00 | 76 | 1008.3 |
| 20260904190008 | 79 | 257 | 0.0 | 0.0 | 0.00 | 0.00 | 0.00 | 75 | 1008.2 |
| 20260904185510 | 79 | 345 | 0.0 | 0.0 | 0.00 | 0.00 | 0.00 | 76 | 1008.2 |
| 20260904185008 | 79 | 305 | 0.0 | 0.0 | 0.00 | 0.00 | 0.00 | 75 | 1008.2 |
| 20260904184507 | 79 | 41 | 0.0 | 0.0 | 0.00 | 0.00 | 0.00 | 76 | 1008.2 |
| 20260904184008 | 79 | 1 | 0.0 | 0.0 | 0.00 | 0.00 | 0.00 | 73 | 1008.1 |
| 20260904183503 | 79 | 1 | 0.0 | 0.0 | 0.00 | 0.00 | 0.00 | 70 | 1008.1 |
| 20260904183008 | 79 | 1 | 0.0 | 0.0 | 0.00 | 0.00 | 0.00 | 70 | 1008.2 |
| 20260904182508 | 79 | 337 | 0.0 | 0.0 | 0.00 | 0.00 | 0.00 | 72 | 1008.2 |
| 20260904182009 | 79 | 333 | 0.0 | 0.0 | 0.00 | 0.00 | 0.00 | 74 | 1008.2 |
| 20260904181508 | 78 | 240 | 0.0 | 0.0 | 0.00 | 0.00 | 0.00 | 73 | 1008.3 |
| 20260904181008 | 78 | 240 | 0.0 | 0.0 | 0.00 | 0.00 | 0.00 | 72 | 1008.4 |
| 20260904180508 | 78 | 229 | 0.0 | 0.0 | 0.00 | 0.00 | 0.00 | 77 | 1008.3 |
| 20260904180008 | 77 | 229 | 0.0 | 0.0 | 0.00 | 0.00 | 0.00 | 74 | 1008.3 |
| 20260904175507 | 77 | 229 | 0.0 | 0.0 | 0.00 | 0.00 | 0.00 | 75 | 1008.5 |
| 20260904175007 | 78 | 229 | 0.0 | 0.0 | 0.00 | 0.00 | 0.00 | 76 | 1008.6 |
| 20260904174512 | 78 | 229 | 0.0 | 0.0 | 0.00 | 0.00 | 0.00 | 73 | 1008.7 |
| 20260904174007 | 78 | 229 | 0.0 | 0.0 | 0.00 | 0.00 | 0.00 | 75 | 1008.7 |
| 20260904173506 | 78 | 229 | 0.0 | 0.0 | 0.00 | 0.00 | 0.00 | 73 | 1008.7 |
| 20260904173011 | 79 | 229 | 0.0 | 0.0 | 0.00 | 0.00 | 0.00 | 72 | 1008.7 |
| 20260904172507 | 79 | 229 | 0.0 | 0.0 | 0.00 | 0.00 | 0.00 | 71 | 1008.8 |
| 20260904172008 | 79 | 304 | 0.0 | 0.0 | 0.00 | 0.00 | 0.00 | 70 | 1008.8 |
| 20260904171516 | 79 | 321 | 0.0 | 0.0 | 0.00 | 0.00 | 0.00 | 73 | 1008.7 |
| 20260904171005 | 79 | 259 | 0.0 | 0.0 | 0.00 | 0.00 | 0.00 | 72 | 1008.6 |
| 20260904170504 | 79 | 259 | 0.0 | 0.0 | 0.00 | 0.00 | 0.00 | 72 | 1008.6 |
| 20260904170007 | 79 | 240 | 0.0 | 0.0 | 0.00 | 0.00 | 0.00 | 72 | 1008.7 |
| 20260904165506 | 79 | 240 | 0.0 | 0.0 | 0.00 | 0.00 | 0.00 | 72 | 1008.8 |
| 20260904165010 | 79 | 338 | 0.0 | 0.0 | 0.00 | 0.00 | 0.00 | 72 | 1008.9 |
| 20260904164513 | 79 | 279 | 0.0 | 0.0 | 0.00 | 0.00 | 0.00 | 71 | 1008.9 |
| 20260904164009 | 79 | 328 | 0.0 | 0.0 | 0.00 | 0.00 | 0.00 | 72 | 1009.0 |
| 20260904163507 | 78 | 323 | 0.0 | 0.0 | 0.00 | 0.00 | 0.00 | 73 | 1009.0 |
| 20260904163015 | 78 | 274 | 0.0 | 0.0 | 0.00 | 0.00 | 0.00 | 77 | 1009.1 |
| 20260904162506 | 78 | 274 | 0.0 | 0.0 | 0.00 | 0.00 | 0.00 | 74 | 1009.0 |
| 20260904162007 | 78 | 274 | 0.0 | 0.0 | 0.00 | 0.00 | 0.00 | 76 | 1009.0 |
| 20260904161514 | 78 | 274 | 0.0 | 0.0 | 0.00 | 0.00 | 0.00 | 77 | 1009.0 |
| 20260904161008 | 78 | 274 | 0.0 | 0.0 | 0.00 | 0.00 | 0.00 | 80 | 1009.2 |
| 20260904160510 | 78 | 274 | 0.0 | 0.0 | 0.00 | 0.00 | 0.00 | 77 | 1009.2 |
| 20260904160016 | 78 | 274 | 0.0 | 0.0 | 0.00 | 0.00 | 0.00 | 80 | 1009.2 |
| 20260904155505 | 78 | 274 | 0.0 | 0.0 | 0.00 | 0.00 | 0.00 | 79 | 1009.2 |
| 20260904155005 | 78 | 326 | 0.0 | 0.0 | 0.00 | 0.00 | 0.00 | 80 | 1009.2 |
| 20260904154511 | 78 | 326 | 0.0 | 0.0 | 0.00 | 0.00 | 0.00 | 79 | 1009.2 |
| 20260904154010 | 78 | 326 | 0.0 | 0.0 | 0.00 | 0.00 | 0.00 | 82 | 1009.1 |
| 20260904153510 | 77 | 312 | 0.0 | 0.0 | 0.00 | 0.00 | 0.00 | 82 | 1009.2 |
| 20260904153020 | 77 | 272 | 0.0 | 0.0 | 0.00 | 0.00 | 0.00 | 82 | 1009.1 |
| 20260904152508 | 77 | 272 | 0.0 | 0.0 | 0.00 | 0.00 | 0.00 | 81 | 1009.2 |
| 20260904152009 | 77 | 272 | 0.0 | 0.0 | 0.00 | 0.00 | 0.00 | 83 | 1009.3 |
| 20260904151514 | 77 | 272 | 0.0 | 0.0 | 0.00 | 0.00 | 0.00 | 83 | 1009.3 |
| 20260904151009 | 77 | 272 | 0.0 | 0.0 | 0.00 | 0.00 | 0.00 | 81 | 1009.4 |
| 20260904150511 | 76 | 243 | 0.0 | 0.0 | 0.00 | 0.00 | 0.00 | 84 | 1009.4 |
| 20260904150018 | 76 | 215 | 0.0 | 0.0 | 0.00 | 0.00 | 0.00 | 86 | 1009.5 |
| 20260904145510 | 76 | 215 | 0.0 | 0.0 | 0.00 | 0.00 | 0.00 | 87 | 1009.5 |
| 20260904145009 | 76 | 300 | 0.0 | 0.0 | 0.00 | 0.00 | 0.00 | 87 | 1009.6 |
| 20260904144511 | 76 | 300 | 0.0 | 0.0 | 0.00 | 0.00 | 0.00 | 87 | 1009.7 |
| 20260904144009 | 75 | 300 | 0.0 | 0.0 | 0.00 | 0.00 | 0.00 | 86 | 1009.7 |
| 20260904143510 | 75 | 211 | 0.0 | 0.0 | 0.00 | 0.00 | 0.00 | 87 | 1009.7 |
| 20260904143014 | 75 | 211 | 0.0 | 0.0 | 0.00 | 0.00 | 0.00 | 87 | 1009.7 |
| 20260904142510 | 74 | 211 | 0.0 | 0.0 | 0.00 | 0.00 | 0.00 | 90 | 1009.6 |
| 20260904142004 | 74 | 211 | 0.0 | 0.0 | 0.00 | 0.00 | 0.00 | 89 | 1009.6 |
| 20260904141503 | 74 | 211 | 0.0 | 0.0 | 0.00 | 0.00 | 0.00 | 90 | 1009.6 |
| 20260904141002 | 73 | 211 | 0.0 | 0.0 | 0.00 | 0.00 | 0.00 | 90 | 1009.6 |
| 20260904140503 | 73 | 211 | 0.0 | 0.0 | 0.00 | 0.00 | 0.00 | 91 | 1009.7 |
| 20260904140003 | 73 | 211 | 0.0 | 0.0 | 0.00 | 0.00 | 0.00 | 91 | 1009.7 |
| 20260904135504 | 73 | 211 | 0.0 | 0.0 | 0.00 | 0.00 | 0.00 | 92 | 1009.7 |
| 20260904135008 | 73 | 211 | 0.0 | 0.0 | 0.00 | 0.00 | 0.00 | 92 | 1009.7 |
| 20260904134507 | 73 | 211 | 0.0 | 0.0 | 0.00 | 0.00 | 0.00 | 92 | 1009.8 |
| 20260904134009 | 72 | 211 | 0.0 | 0.0 | 0.00 | 0.00 | 0.00 | 93 | 1009.7 |
| 20260904133503 | 72 | 211 | 0.0 | 0.0 | 0.00 | 0.00 | 0.00 | 93 | 1009.7 |
| 20260904133010 | 72 | 211 | 0.0 | 0.0 | 0.00 | 0.00 | 0.00 | 93 | 1009.8 |
| 20260904132509 | 72 | 211 | 0.0 | 0.0 | 0.00 | 0.00 | 0.00 | 94 | 1009.8 |
| 20260904132007 | 72 | 211 | 0.0 | 0.0 | 0.00 | 0.00 | 0.00 | 94 | 1009.8 |
| 20260904131503 | 71 | 211 | 0.0 | 0.0 | 0.00 | 0.01 | 0.00 | 95 | 1009.8 |
| 20260904131003 | 71 | 211 | 0.0 | 0.0 | 0.00 | 0.01 | 0.00 | 95 | 1009.7 |
| 20260904130502 | 71 | 211 | 0.0 | 0.0 | 0.00 | 0.01 | 0.00 | 95 | 1009.8 |
| 20260904130003 | 71 | 211 | 0.0 | 0.0 | 0.00 | 0.01 | 0.00 | 95 | 1009.9 |
| 20260904125504 | 71 | 211 | 0.0 | 0.0 | 0.00 | 0.01 | 0.00 | 95 | 1009.8 |
| 20260904125006 | 71 | 211 | 0.0 | 0.0 | 0.00 | 0.01 | 0.00 | 95 | 1009.8 |
| 20260904124504 | 70 | 211 | 0.0 | 0.0 | 0.00 | 0.02 | 0.00 | 95 | 1009.9 |
| 20260904124005 | 70 | 211 | 0.0 | 0.0 | 0.00 | 0.02 | 0.00 | 96 | 1010.0 |
| 20260904123505 | 70 | 211 | 0.0 | 0.0 | 0.00 | 0.03 | 0.00 | 96 | 1010.0 |
| 20260904123009 | 70 | 211 | 0.0 | 0.0 | 0.00 | 0.03 | 0.00 | 96 | 1010.0 |
| 20260904122507 | 70 | 211 | 0.0 | 0.0 | 0.00 | 0.04 | 0.00 | 96 | 1010.0 |
| 20260904122008 | 70 | 211 | 0.0 | 0.0 | 0.00 | 0.05 | 0.00 | 96 | 1010.1 |
| 20260904121510 | 70 | 211 | 0.0 | 0.0 | 0.00 | 0.06 | 0.00 | 97 | 1010.1 |
| 20260904121008 | 70 | 211 | 0.0 | 0.0 | 0.00 | 0.08 | 0.00 | 96 | 1010.2 |
| 20260904120506 | 70 | 211 | 0.0 | 0.0 | 0.00 | 0.10 | 0.00 | 96 | 1010.2 |
| 20260904120005 | 70 | 211 | 0.0 | 0.0 | 0.00 | 0.12 | 0.00 | 96 | 1010.2 |
| 20260904115504 | 69 | 211 | 0.0 | 0.0 | 0.00 | 0.14 | 0.00 | 96 | 1010.3 |
| 20260904115005 | 69 | 211 | 0.0 | 0.0 | 0.00 | 0.14 | 0.00 | 97 | 1010.3 |
| 20260904114504 | 69 | 211 | 0.0 | 0.0 | 0.00 | 0.14 | 0.00 | 96 | 1010.3 |
| 20260904114004 | 69 | 211 | 0.0 | 0.0 | 0.00 | 0.14 | 0.00 | 96 | 1010.3 |
| 20260904113506 | 69 | 211 | 0.0 | 0.0 | 0.00 | 0.15 | 0.00 | 96 | 1010.3 |
| 20260904113015 | 69 | 211 | 0.0 | 0.0 | 0.00 | 0.16 | 0.00 | 96 | 1010.2 |
| 20260904112507 | 69 | 211 | 0.0 | 0.0 | 0.00 | 0.16 | 0.00 | 96 | 1010.2 |
| 20260904112008 | 68 | 211 | 0.0 | 0.0 | 0.00 | 0.18 | 0.00 | 96 | 1010.3 |
| 20260904111516 | 68 | 211 | 0.0 | 0.0 | 0.00 | 0.20 | 0.00 | 96 | 1010.3 |
| 20260904111010 | 68 | 211 | 0.0 | 0.0 | 0.00 | 0.22 | 0.00 | 96 | 1010.3 |
| 20260904110510 | 68 | 211 | 0.0 | 0.0 | 0.00 | 0.24 | 0.00 | 96 | 1010.3 |
| 20260904110030 | 68 | 211 | 0.0 | 0.0 | 0.00 | 0.27 | 0.00 | 96 | 1010.2 |
| 20260904105508 | 68 | 211 | 0.0 | 0.0 | 0.00 | 0.31 | 0.00 | 96 | 1010.1 |
| 20260904105013 | 68 | 211 | 0.0 | 0.0 | 0.00 | 0.34 | 0.00 | 96 | 1010.0 |
| 20260904104504 | 68 | 211 | 0.0 | 0.0 | 0.00 | 0.36 | 0.00 | 96 | 1009.9 |
| 20260904104004 | 68 | 211 | 0.0 | 0.0 | 0.00 | 0.38 | 0.00 | 96 | 1010.0 |
| 20260904103503 | 68 | 211 | 0.0 | 0.0 | 0.00 | 0.41 | 0.00 | 96 | 1009.9 |
| 20260904103007 | 68 | 211 | 0.0 | 0.0 | 0.00 | 0.44 | 0.00 | 96 | 1009.8 |
| 20260904102504 | 68 | 211 | 0.0 | 0.0 | 0.00 | 0.48 | 0.00 | 96 | 1009.8 |
| 20260904102005 | 68 | 211 | 0.0 | 0.0 | 0.00 | 0.60 | 0.00 | 96 | 1009.9 |
| 20260904101508 | 68 | 211 | 0.0 | 0.0 | 0.00 | 0.60 | 0.00 | 96 | 1009.8 |
| 20260904101008 | 68 | 211 | 0.0 | 0.0 | 0.00 | 0.62 | 0.00 | 96 | 1009.7 |
| 20260904100511 | 68 | 211 | 0.0 | 0.0 | 0.00 | 0.67 | 0.00 | 96 | 1009.7 |
| 20260904100018 | 68 | 211 | 0.0 | 0.0 | 0.00 | 0.73 | 0.00 | 96 | 1009.7 |
| 20260904095509 | 68 | 211 | 0.0 | 0.0 | 0.00 | 0.77 | 0.00 | 96 | 1009.5 |
| 20260904095011 | 68 | 211 | 0.0 | 0.0 | 0.00 | 0.82 | 0.00 | 96 | 1009.6 |
| 20260904094520 | 68 | 211 | 0.0 | 0.0 | 0.00 | 0.86 | 0.00 | 96 | 1009.5 |
| 20260904094010 | 68 | 211 | 0.0 | 0.0 | 0.00 | 0.86 | 0.00 | 96 | 1009.6 |
| 20260904093513 | 67 | 211 | 0.0 | 0.0 | 0.00 | 0.86 | 0.00 | 96 | 1009.7 |
| 20260904093006 | 67 | 211 | 0.0 | 0.0 | 0.00 | 0.86 | 0.00 | 96 | 1009.6 |
| 20260904092504 | 67 | 211 | 0.0 | 0.0 | 0.00 | 0.86 | 0.00 | 96 | 1009.4 |
| 20260904092013 | 67 | 211 | 0.0 | 0.0 | 0.00 | 0.86 | 0.00 | 96 | 1009.5 |
| 20260904091508 | 67 | 211 | 0.0 | 0.0 | 0.00 | 0.86 | 0.00 | 95 | 1009.6 |
| 20260904091006 | 67 | 211 | 0.0 | 0.0 | 0.00 | 0.86 | 0.00 | 96 | 1009.7 |
| 20260904090511 | 67 | 211 | 0.0 | 0.0 | 0.00 | 0.86 | 0.00 | 95 | 1009.9 |
| 20260904090014 | 67 | 211 | 0.0 | 0.0 | 0.00 | 0.86 | 0.00 | 95 | 1009.9 |
| 20260904085510 | 67 | 211 | 0.0 | 0.0 | 0.00 | 0.86 | 0.00 | 95 | 1009.8 |
| 20260904085013 | 67 | 211 | 0.0 | 0.0 | 0.00 | 0.86 | 0.00 | 95 | 1009.8 |
| 20260904084523 | 67 | 211 | 0.0 | 0.0 | 0.00 | 0.86 | 0.00 | 95 | 1009.9 |
| 20260904084011 | 67 | 211 | 0.0 | 0.0 | 0.00 | 0.86 | 0.00 | 95 | 1009.7 |
| 20260904083513 | 67 | 211 | 0.0 | 0.0 | 0.00 | 0.86 | 0.00 | 95 | 1009.6 |
| 20260904083018 | 67 | 211 | 0.0 | 0.0 | 0.00 | 0.86 | 0.00 | 95 | 1009.6 |
| 20260904082514 | 68 | 211 | 0.0 | 0.0 | 0.00 | 0.86 | 0.00 | 95 | 1009.7 |
| 20260904082014 | 68 | 211 | 0.0 | 0.0 | 0.00 | 0.86 | 0.00 | 95 | 1009.7 |
| 20260904081505 | 68 | 211 | 0.0 | 0.0 | 0.00 | 0.86 | 0.00 | 95 | 1009.6 |
| 20260904081016 | 68 | 211 | 0.0 | 0.0 | 0.00 | 0.86 | 0.00 | 95 | 1009.7 |
| 20260904080512 | 68 | 211 | 0.0 | 0.0 | 0.00 | 0.86 | 0.00 | 95 | 1009.6 |
| 20260904080010 | 68 | 211 | 0.0 | 0.0 | 0.00 | 0.86 | 0.00 | 95 | 1009.8 |
| 20260904075508 | 68 | 211 | 0.0 | 0.0 | 0.00 | 0.86 | 0.00 | 95 | 1009.9 |
| 20260904075012 | 68 | 211 | 0.0 | 0.0 | 0.00 | 0.86 | 0.00 | 95 | 1009.9 |
| 20260904074518 | 68 | 211 | 0.0 | 0.0 | 0.00 | 0.86 | 0.00 | 95 | 1009.8 |
| 20260904074011 | 68 | 211 | 0.0 | 0.0 | 0.00 | 0.86 | 0.00 | 95 | 1009.9 |
| 20260904073513 | 68 | 211 | 0.0 | 0.0 | 0.00 | 0.86 | 0.00 | 95 | 1009.9 |
| 20260904073024 | 68 | 211 | 0.0 | 0.0 | 0.00 | 0.86 | 0.00 | 95 | 1010.0 |
| 20260904072516 | 68 | 211 | 0.0 | 0.0 | 0.00 | 0.86 | 0.00 | 95 | 1010.2 |
| 20260904072014 | 69 | 211 | 0.0 | 0.0 | 0.00 | 0.86 | 0.00 | 95 | 1010.1 |
| 20260904071523 | 69 | 211 | 0.0 | 0.0 | 0.00 | 0.86 | 0.00 | 95 | 1010.2 |
| 20260904071012 | 69 | 211 | 0.0 | 0.0 | 0.00 | 0.86 | 0.00 | 95 | 1010.2 |
| 20260904070516 | 69 | 211 | 0.0 | 0.0 | 0.00 | 0.86 | 0.00 | 95 | 1010.3 |
| 20260904070038 | 69 | 211 | 0.0 | 0.0 | 0.00 | 0.86 | 0.00 | 95 | 1010.4 |
| 20260904065508 | 69 | 211 | 0.0 | 0.0 | 0.00 | 0.86 | 0.00 | 95 | 1010.6 |
| 20260904065009 | 69 | 211 | 0.0 | 0.0 | 0.00 | 0.86 | 0.00 | 95 | 1010.6 |
| 20260904064513 | 69 | 211 | 0.0 | 0.0 | 0.00 | 0.86 | 0.00 | 95 | 1010.5 |
| 20260904064010 | 69 | 211 | 0.0 | 0.0 | 0.00 | 0.86 | 0.00 | 95 | 1010.5 |
| 20260904063510 | 69 | 211 | 0.0 | 0.0 | 0.00 | 0.86 | 0.00 | 95 | 1010.4 |
| 20260904063018 | 69 | 211 | 0.0 | 0.0 | 0.00 | 0.86 | 0.00 | 95 | 1010.4 |
| 20260904062517 | 69 | 211 | 0.0 | 0.0 | 0.00 | 0.86 | 0.00 | 95 | 1010.6 |
| 20260904062018 | 69 | 211 | 0.0 | 0.0 | 0.00 | 0.86 | 0.00 | 95 | 1010.6 |
| 20260904061526 | 69 | 211 | 0.0 | 0.0 | 0.00 | 0.86 | 0.00 | 95 | 1010.7 |
| 20260904061015 | 69 | 211 | 0.0 | 0.0 | 0.00 | 0.86 | 0.00 | 95 | 1010.7 |
| 20260904060514 | 69 | 211 | 0.0 | 0.0 | 0.00 | 0.86 | 0.00 | 95 | 1010.6 |
| 20260904060026 | 69 | 211 | 0.0 | 0.0 | 0.00 | 0.86 | 0.00 | 95 | 1010.5 |
| 20260904055515 | 69 | 211 | 0.0 | 0.0 | 0.00 | 0.86 | 0.00 | 95 | 1010.7 |
| 20260904055015 | 69 | 211 | 0.0 | 0.0 | 0.00 | 0.86 | 0.00 | 95 | 1010.7 |
| 20260904054520 | 69 | 211 | 0.0 | 0.0 | 0.00 | 0.86 | 0.00 | 95 | 1010.9 |
| 20260904054009 | 69 | 211 | 0.0 | 0.0 | 0.00 | 0.86 | 0.00 | 95 | 1011.0 |
| 20260904053508 | 69 | 211 | 0.0 | 0.0 | 0.00 | 0.86 | 0.00 | 95 | 1011.2 |
| 20260904053016 | 69 | 211 | 0.0 | 0.0 | 0.00 | 0.86 | 0.00 | 95 | 1011.3 |
| 20260904052512 | 70 | 211 | 0.0 | 0.0 | 0.00 | 0.86 | 0.00 | 95 | 1011.2 |
| 20260904052012 | 70 | 211 | 0.0 | 0.0 | 0.00 | 0.86 | 0.00 | 95 | 1011.2 |
| 20260904051523 | 70 | 211 | 0.0 | 0.0 | 0.00 | 0.86 | 0.00 | 95 | 1011.3 |
| 20260904051020 | 70 | 211 | 0.0 | 0.0 | 0.00 | 0.86 | 0.00 | 95 | 1011.4 |
| 20260904050514 | 69 | 211 | 0.0 | 0.0 | 0.00 | 0.86 | 0.00 | 95 | 1011.3 |
| 20260904050012 | 69 | 211 | 0.0 | 0.0 | 0.00 | 0.86 | 0.00 | 95 | 1011.5 |
| 20260904045505 | 70 | 211 | 0.0 | 0.0 | 0.00 | 0.86 | 0.00 | 95 | 1011.7 |
| 20260904045005 | 70 | 211 | 0.0 | 0.0 | 0.00 | 0.86 | 0.00 | 95 | 1011.8 |
| 20260904044507 | 70 | 211 | 0.0 | 0.0 | 0.00 | 0.86 | 0.00 | 95 | 1011.7 |
| 20260904044003 | 70 | 211 | 0.0 | 0.0 | 0.00 | 0.86 | 0.00 | 95 | 1011.7 |
| 20260904043506 | 70 | 211 | 0.0 | 0.0 | 0.00 | 0.86 | 0.00 | 95 | 1011.8 |
| 20260904043027 | 70 | 211 | 0.0 | 0.0 | 0.00 | 0.86 | 0.00 | 95 | 1011.8 |
| 20260904042509 | 70 | 211 | 0.0 | 0.0 | 0.00 | 0.86 | 0.00 | 95 | 1011.8 |
| 20260904042012 | 70 | 211 | 0.0 | 0.0 | 0.00 | 0.86 | 0.00 | 95 | 1011.7 |
| 20260904041519 | 70 | 211 | 0.0 | 0.0 | 0.00 | 0.86 | 0.00 | 95 | 1011.7 |
| 20260904041013 | 70 | 211 | 0.0 | 0.0 | 0.00 | 0.86 | 0.00 | 95 | 1011.5 |
| 20260904040516 | 70 | 211 | 0.0 | 0.0 | 0.00 | 0.86 | 0.00 | 95 | 1011.7 |
| 20260904040027 | 70 | 211 | 0.0 | 0.0 | 0.00 | 0.86 | 0.00 | 95 | 1011.9 |
| 20260904035517 | 70 | 211 | 0.0 | 0.0 | 0.00 | 0.86 | 0.86 | 95 | 1011.8 |
| 20260904035015 | 70 | 211 | 0.0 | 0.0 | 0.00 | 0.86 | 0.86 | 95 | 1011.8 |
| 20260904034509 | 70 | 211 | 0.0 | 0.0 | 0.00 | 0.86 | 0.86 | 95 | 1011.9 |
| 20260904034003 | 70 | 211 | 0.0 | 0.0 | 0.00 | 0.86 | 0.86 | 95 | 1012.0 |
| 20260904033505 | 70 | 211 | 0.0 | 0.0 | 0.00 | 0.86 | 0.86 | 95 | 1012.1 |
| 20260904033010 | 70 | 211 | 0.0 | 0.0 | 0.00 | 0.86 | 0.86 | 95 | 1011.9 |
| 20260904032509 | 69 | 211 | 0.0 | 0.0 | 0.00 | 0.86 | 0.86 | 95 | 1011.8 |
| 20260904032008 | 69 | 211 | 0.0 | 0.0 | 0.00 | 0.86 | 0.86 | 95 | 1011.8 |
| 20260904031516 | 69 | 211 | 0.0 | 0.0 | 0.00 | 0.86 | 0.86 | 95 | 1011.7 |
| 20260904031011 | 69 | 211 | 0.0 | 0.0 | 0.00 | 0.86 | 0.86 | 94 | 1011.7 |
| 20260904030513 | 69 | 211 | 0.0 | 0.0 | 0.00 | 0.86 | 0.86 | 94 | 1011.7 |
| 20260904030023 | 69 | 211 | 0.0 | 0.0 | 0.00 | 0.86 | 0.86 | 94 | 1011.9 |
| 20260904025515 | 69 | 211 | 0.0 | 0.0 | 0.00 | 0.86 | 0.86 | 94 | 1011.9 |
| 20260904025014 | 69 | 211 | 0.0 | 0.0 | 0.00 | 0.86 | 0.86 | 94 | 1012.0 |
| 20260904024530 | 69 | 211 | 0.0 | 0.0 | 0.00 | 0.86 | 0.86 | 94 | 1012.0 |
| 20260904024014 | 70 | 211 | 0.0 | 0.0 | 0.00 | 0.86 | 0.86 | 94 | 1012.1 |
| 20260904023514 | 70 | 211 | 0.0 | 0.0 | 0.00 | 0.86 | 0.86 | 94 | 1012.0 |
| 20260904023008 | 70 | 211 | 0.0 | 0.0 | 0.00 | 0.86 | 0.86 | 94 | 1012.2 |
| 20260904022507 | 70 | 211 | 0.0 | 0.0 | 0.00 | 0.86 | 0.86 | 94 | 1012.2 |
| 20260904022008 | 70 | 211 | 0.0 | 0.0 | 0.00 | 0.86 | 0.86 | 94 | 1012.2 |
| 20260904021511 | 70 | 211 | 0.0 | 0.0 | 0.00 | 0.86 | 0.86 | 94 | 1012.2 |
| 20260904021008 | 70 | 211 | 0.0 | 0.0 | 0.00 | 0.86 | 0.86 | 94 | 1012.2 |
| 20260904020512 | 70 | 211 | 0.0 | 0.0 | 0.00 | 0.86 | 0.86 | 94 | 1012.3 |
| 20260904020020 | 70 | 211 | 0.0 | 0.0 | 0.00 | 0.86 | 0.86 | 94 | 1012.4 |
| 20260904015517 | 70 | 211 | 0.0 | 0.0 | 0.00 | 0.86 | 0.86 | 94 | 1012.5 |
| 20260904015015 | 70 | 211 | 0.0 | 0.0 | 0.00 | 0.86 | 0.86 | 94 | 1012.5 |
| 20260904014525 | 70 | 211 | 0.0 | 0.0 | 0.00 | 0.86 | 0.86 | 94 | 1012.8 |
| 20260904014017 | 70 | 211 | 0.0 | 0.0 | 0.00 | 0.86 | 0.86 | 94 | 1013.0 |
| 20260904013514 | 70 | 211 | 0.0 | 0.0 | 0.00 | 0.86 | 0.86 | 94 | 1013.0 |
| 20260904013033 | 70 | 211 | 0.0 | 0.0 | 0.00 | 0.86 | 0.86 | 94 | 1012.8 |
| 20260904012517 | 70 | 211 | 0.0 | 0.0 | 0.00 | 0.86 | 0.86 | 94 | 1012.7 |
| 20260904012016 | 70 | 211 | 0.0 | 0.0 | 0.00 | 0.86 | 0.86 | 94 | 1012.8 |
| 20260904011537 | 70 | 211 | 0.0 | 0.0 | 0.00 | 0.86 | 0.86 | 94 | 1012.8 |
| 20260904011008 | 70 | 211 | 0.0 | 0.0 | 0.00 | 0.86 | 0.86 | 94 | 1012.9 |
| 20260904010508 | 70 | 211 | 0.0 | 0.0 | 0.00 | 0.86 | 0.86 | 94 | 1012.8 |
| 20260904010016 | 70 | 211 | 0.0 | 0.0 | 0.00 | 0.86 | 0.86 | 94 | 1012.8 |
| 20260904005517 | 70 | 211 | 0.0 | 0.0 | 0.00 | 0.86 | 0.86 | 94 | 1012.8 |
| 20260904005017 | 70 | 211 | 0.0 | 0.0 | 0.00 | 0.86 | 0.86 | 94 | 1012.8 |
| 20260904004519 | 70 | 211 | 0.0 | 0.0 | 0.00 | 0.86 | 0.86 | 94 | 1012.7 |
| 20260904004017 | 70 | 211 | 0.0 | 0.0 | 0.00 | 0.86 | 0.86 | 94 | 1012.5 |
| 20260904003521 | 70 | 211 | 0.0 | 0.0 | 0.00 | 0.86 | 0.86 | 94 | 1012.3 |
| 20260904003026 | 70 | 211 | 0.0 | 0.0 | 0.00 | 0.86 | 0.86 | 94 | 1012.2 |
| 20260904002515 | 70 | 211 | 0.0 | 0.0 | 0.00 | 0.86 | 0.86 | 94 | 1012.0 |
| 20260904002014 | 70 | 211 | 0.0 | 0.0 | 0.00 | 0.86 | 0.86 | 93 | 1012.1 |
| 20260904001530 | 70 | 211 | 0.0 | 0.0 | 0.00 | 0.86 | 0.86 | 93 | 1012.0 |
| 20260904001018 | 70 | 211 | 0.0 | 0.0 | 0.00 | 0.86 | 0.86 | 93 | 1012.1 |
| 20260904000515 | 70 | 211 | 0.0 | 0.0 | 0.00 | 0.86 | 0.86 | 93 | 1012.1 |
| 20260904000029 | 70 | 211 | 0.0 | 0.0 | 0.00 | 0.86 | 0.86 | 93 | 1012.0 |
| 20260903235514 | 70 | 211 | 0.0 | 0.0 | 0.00 | 0.86 | 0.86 | 92 | 1011.8 |
| 20260903235018 | 70 | 211 | 0.0 | 0.0 | 0.00 | 0.86 | 0.86 | 92 | 1011.7 |
| 20260903234535 | 70 | 211 | 0.0 | 0.0 | 0.00 | 0.86 | 0.86 | 92 | 1011.7 |
| 20260903234020 | 71 | 211 | 0.0 | 0.0 | 0.00 | 0.86 | 0.86 | 92 | 1011.7 |
| 20260903233516 | 71 | 211 | 0.0 | 0.0 | 0.00 | 0.86 | 0.86 | 92 | 1011.7 |
| 20260903233027 | 71 | 211 | 0.0 | 0.0 | 0.00 | 0.86 | 0.86 | 92 | 1011.7 |
| 20260903232514 | 71 | 211 | 0.0 | 0.0 | 0.00 | 0.86 | 0.86 | 92 | 1011.7 |
| 20260903232014 | 71 | 211 | 0.0 | 0.0 | 0.00 | 0.86 | 0.86 | 92 | 1011.7 |
| 20260903231532 | 71 | 211 | 0.0 | 0.0 | 0.00 | 0.86 | 0.86 | 91 | 1011.8 |
| 20260903231016 | 71 | 211 | 0.0 | 0.0 | 0.00 | 0.86 | 0.86 | 91 | 1011.8 |
| 20260903230516 | 71 | 211 | 0.0 | 0.0 | 0.00 | 0.86 | 0.86 | 91 | 1011.8 |
| 20260903230041 | 72 | 211 | 0.0 | 0.0 | 0.00 | 0.86 | 0.86 | 91 | 1011.9 |
| 20260903225517 | 72 | 211 | 0.0 | 0.0 | 0.00 | 0.86 | 0.86 | 91 | 1011.9 |
| 20260903225009 | 72 | 211 | 0.0 | 0.0 | 0.00 | 0.86 | 0.86 | 91 | 1011.9 |
| 20260903224515 | 72 | 211 | 0.0 | 0.0 | 0.00 | 0.86 | 0.86 | 91 | 1011.8 |
| 20260903224010 | 72 | 211 | 0.0 | 0.0 | 0.00 | 0.86 | 0.86 | 91 | 1012.0 |
| 20260903223510 | 72 | 211 | 0.0 | 0.0 | 0.00 | 0.86 | 0.86 | 90 | 1012.1 |
| 20260903223024 | 73 | 211 | 0.0 | 0.0 | 0.00 | 0.86 | 0.86 | 90 | 1012.1 |
| 20260903222512 | 73 | 211 | 0.0 | 0.0 | 0.00 | 0.86 | 0.86 | 90 | 1012.1 |
| 20260903222016 | 73 | 211 | 0.0 | 0.0 | 0.00 | 0.86 | 0.86 | 89 | 1012.2 |
| 20260903221529 | 73 | 211 | 0.0 | 0.0 | 0.00 | 0.86 | 0.86 | 89 | 1012.1 |
| 20260903221013 | 73 | 211 | 0.0 | 0.0 | 0.00 | 0.86 | 0.86 | 89 | 1012.2 |
| 20260903220515 | 73 | 229 | 0.0 | 0.0 | 0.00 | 0.86 | 0.86 | 89 | 1012.1 |
| 20260903220032 | 73 | 229 | 0.0 | 0.0 | 0.00 | 0.86 | 0.86 | 89 | 1012.0 |
| 20260903215517 | 74 | 229 | 0.0 | 0.0 | 0.00 | 0.86 | 0.86 | 89 | 1012.0 |
| 20260903215016 | 74 | 229 | 0.0 | 0.0 | 0.00 | 0.86 | 0.86 | 88 | 1011.9 |
| 20260903214535 | 74 | 229 | 0.0 | 0.0 | 0.00 | 0.86 | 0.86 | 88 | 1011.9 |
| 20260903214014 | 74 | 229 | 0.0 | 0.0 | 0.00 | 0.86 | 0.86 | 87 | 1012.0 |
| 20260903213511 | 74 | 229 | 0.0 | 0.0 | 0.00 | 0.86 | 0.86 | 87 | 1012.1 |
| 20260903213030 | 74 | 199 | 0.0 | 0.0 | 0.00 | 0.86 | 0.86 | 87 | 1012.1 |
| 20260903212515 | 74 | 199 | 0.0 | 0.0 | 0.00 | 0.86 | 0.86 | 88 | 1011.9 |